Change the Weather History Date:

Tuesday, August 6, 2013

  Actual Average Record
Temperature  
Mean Temperature 68 °F -  
Max Temperature 78 °F 84 °F 98 °F (1937)
Min Temperature 57 °F 55 °F 41 °F (1917)
Cooling Degree Days 2    
Growing Degree Days 18 (Base 50)    
Moisture  
Dew Point 44 °F    
Average Humidity 45    
Maximum Humidity 67    
Minimum Humidity 27    
Precipitation  
Precipitation 0.00 in - - ()
Sea Level Pressure  
Sea Level Pressure 30.08 in    
Wind  
Wind Speed 6 mph (North)    
Max Wind Speed 18 mph    
Max Gust Speed 23 mph    
Visibility 10 miles    
Events      
Averages and records for this station are not official NWS values.
T = Trace of Precipitation, MM = Missing Value Source: NWS Daily Summary

Daily Weather History Graph

Daily Weather History Graph

Search for Another Location

Airport or City:

Trip Planner

Search our weather history database for the weather conditions in past years. The results will help you decide how hot, cold, wet, or windy it might be!

Date:

Astronomy

Aug. 06, 2013 Rise Set
Actual Time 6:08 AM MDT 8:34 PM MDT
Civil Twilight 5:36 AM MDT 9:06 PM MDT
Nautical Twilight 4:55 AM MDT 9:47 PM MDT
Astronomical Twilight 4:09 AM MDT 10:33 PM MDT
Moon 6:05 AM MDT (8/6) 8:07 PM MDT (8/6)
Length of Visible Light 15h 30m
Length of Day
14h 25m
Waning Crescent, 0% of the Moon is Illuminated
Aug 6
Waning Crescent
Aug 6
New
Aug 14
First Quarter
Aug 20
Full
Aug 28
Last Quarter

Hourly Weather History & Observations

Time (MDT) Temp. Dew Point Humidity Pressure Visibility Wind Dir Wind Speed Gust Speed Precip Events Conditions
12:15 AM 60.8 °F 42.8 °F 52% 30.05 in 10.0 mi SW 5.8 mph - N/A   Clear
12:35 AM 62.6 °F 42.8 °F 48% 30.03 in 10.0 mi Calm Calm - N/A   Clear
1:15 AM 59.0 °F 42.8 °F 55% 30.04 in 10.0 mi Calm Calm - N/A   Clear
1:35 AM 60.8 °F 41.0 °F 48% 30.03 in 10.0 mi Calm Calm - N/A   Clear
1:55 AM 57.2 °F 42.8 °F 59% 30.04 in 10.0 mi Calm Calm - N/A   Clear
2:35 AM 60.8 °F 44.6 °F 55% 30.05 in 10.0 mi North 15.0 mph 19.6 mph N/A   Clear
2:55 AM 62.6 °F 44.6 °F 52% 30.07 in 10.0 mi NNW 18.4 mph 23.0 mph N/A   Clear
3:15 AM 62.6 °F 44.6 °F 52% 30.07 in 10.0 mi NW 12.7 mph 20.7 mph N/A   Clear
3:35 AM 62.6 °F 44.6 °F 52% 30.07 in 10.0 mi NW 9.2 mph - N/A   Clear
3:55 AM 60.8 °F 44.6 °F 55% 30.07 in 10.0 mi NW 9.2 mph - N/A   Clear
4:15 AM 59.0 °F 44.6 °F 59% 30.08 in 10.0 mi NW 6.9 mph - N/A   Clear
4:35 AM 59.0 °F 44.6 °F 59% 30.07 in 10.0 mi NW 5.8 mph - N/A   Clear
4:55 AM 57.2 °F 44.6 °F 63% 30.07 in 10.0 mi North 5.8 mph - N/A   Clear
5:15 AM 57.2 °F 44.6 °F 63% 30.07 in 10.0 mi Calm Calm - N/A   Clear
5:35 AM 59.0 °F 42.8 °F 55% 30.08 in 10.0 mi Calm Calm - N/A   Clear
5:55 AM 57.2 °F 42.8 °F 59% 30.08 in 10.0 mi SW 6.9 mph - N/A   Clear
6:15 AM 57.2 °F 44.6 °F 63% 30.08 in 10.0 mi WSW 4.6 mph - N/A   Clear
6:35 AM 57.2 °F 44.6 °F 63% 30.08 in 10.0 mi WSW 3.5 mph - N/A   Clear
6:55 AM 57.2 °F 42.8 °F 59% 30.08 in 10.0 mi Calm Calm - N/A   Clear
7:15 AM 57.2 °F 44.6 °F 63% 30.09 in 10.0 mi SW 4.6 mph - N/A   Clear
7:35 AM 57.2 °F 46.4 °F 67% 30.09 in 10.0 mi Calm Calm - N/A   Clear
7:55 AM 60.8 °F 44.6 °F 55% 30.09 in 10.0 mi SW 6.9 mph - N/A   Clear
8:15 AM 60.8 °F 44.6 °F 55% 30.09 in 10.0 mi Calm Calm - N/A   Mostly Cloudy
8:55 AM 60.8 °F 46.4 °F 59% 30.10 in 10.0 mi NE 8.1 mph - N/A   Overcast
9:15 AM 62.6 °F 48.2 °F 59% 30.10 in 10.0 mi NE 10.4 mph - N/A   Overcast
9:35 AM 64.4 °F 48.2 °F 56% 30.11 in 10.0 mi NNE 9.2 mph - N/A   Mostly Cloudy
9:55 AM 64.4 °F 48.2 °F 56% 30.11 in 10.0 mi NNE 10.4 mph - N/A   Mostly Cloudy
10:15 AM 66.2 °F 48.2 °F 52% 30.10 in 10.0 mi NNE 6.9 mph - N/A   Mostly Cloudy
10:35 AM 68.0 °F 48.2 °F 49% 30.10 in 10.0 mi NNE 11.5 mph - N/A   Partly Cloudy
10:55 AM - - N/A% 30.09 in 10.0 mi North 5.8 mph - N/A   Partly Cloudy
11:15 AM - - N/A% 30.09 in 9.0 mi NE 8.1 mph - N/A   Clear
11:35 AM - - N/A% 30.09 in 10.0 mi NE 10.4 mph 16.1 mph N/A   Clear
11:55 AM 71.6 °F 48.2 °F 43% 30.09 in 7.0 mi NE 9.2 mph - N/A   Clear
12:15 PM 73.4 °F 48.2 °F 41% 30.09 in 10.0 mi NNE 6.9 mph - N/A   Clear
12:35 PM 73.4 °F 48.2 °F 41% 30.09 in 10.0 mi NNE 9.2 mph - N/A   Clear
12:55 PM 73.4 °F 44.6 °F 36% 30.08 in 10.0 mi NE 6.9 mph - N/A   Clear
1:15 PM 73.4 °F 51.8 °F 47% 30.08 in 10.0 mi North 8.1 mph 17.3 mph N/A   Clear
1:55 PM 75.2 °F 50.0 °F 41% 30.07 in 10.0 mi NNE 12.7 mph 16.1 mph N/A   Clear
2:35 PM 75.2 °F 48.2 °F 38% 30.07 in 10.0 mi North 11.5 mph 16.1 mph N/A   Clear
2:55 PM 77.0 °F 46.4 °F 34% 30.07 in 10.0 mi NNE 10.4 mph 17.3 mph N/A   Clear
3:15 PM 77.0 °F 46.4 °F 34% 30.07 in 10.0 mi North 11.5 mph - N/A   Clear
3:35 PM 77.0 °F 44.6 °F 32% 30.07 in 10.0 mi NE 10.4 mph 16.1 mph N/A   Clear
3:55 PM 78.8 °F 46.4 °F 32% 30.07 in 10.0 mi NE 12.7 mph 17.3 mph N/A   Clear
4:15 PM 78.8 °F 46.4 °F 32% 30.07 in 10.0 mi NE 11.5 mph 17.3 mph N/A   Clear
4:55 PM 78.8 °F 44.6 °F 30% 30.06 in 10.0 mi NE 12.7 mph - N/A   Clear
5:15 PM 78.8 °F 44.6 °F 30% 30.06 in 10.0 mi NNE 8.1 mph 17.3 mph N/A   Clear
5:35 PM 78.8 °F 44.6 °F 30% 30.06 in 10.0 mi NE 13.8 mph - N/A   Clear
5:55 PM 78.8 °F 42.8 °F 28% 30.06 in 10.0 mi NNE 11.5 mph 18.4 mph N/A   Clear
6:15 PM 77.0 °F 42.8 °F 29% 30.06 in 10.0 mi NNE 12.7 mph - N/A   Clear
6:35 PM 77.0 °F 42.8 °F 29% 30.06 in 10.0 mi NE 11.5 mph - N/A   Clear
6:55 PM 77.0 °F 42.8 °F 29% 30.06 in 10.0 mi NNE 11.5 mph - N/A   Clear
7:15 PM 75.2 °F 42.8 °F 31% 30.06 in 10.0 mi North 9.2 mph - N/A   Clear
7:35 PM 75.2 °F 39.2 °F 27% 30.07 in 10.0 mi North 13.8 mph - N/A   Clear
7:55 PM 73.4 °F 39.2 °F 29% 30.08 in 10.0 mi NNE 8.1 mph - N/A   Clear
8:15 PM 71.6 °F 39.2 °F 31% 30.09 in 10.0 mi North 9.2 mph - N/A   Clear
8:35 PM 71.6 °F 39.2 °F 31% 30.09 in 10.0 mi North 8.1 mph - N/A   Clear
8:55 PM 69.8 °F 41.0 °F 35% 30.10 in 10.0 mi NNE 4.6 mph - N/A   Clear
9:15 PM 69.8 °F 39.2 °F 33% 30.11 in 10.0 mi Calm Calm - N/A   Clear
9:35 PM 68.0 °F 41.0 °F 37% 30.12 in 10.0 mi NNW 4.6 mph - N/A   Clear
9:55 PM 68.0 °F 39.2 °F 35% 30.12 in 10.0 mi Calm Calm - N/A   Clear
10:35 PM 66.2 °F 41.0 °F 40% 30.13 in 10.0 mi West 3.5 mph - N/A   Clear
11:15 PM 66.2 °F 41.0 °F 40% 30.14 in 10.0 mi WNW 3.5 mph - N/A   Clear
11:55 PM 64.4 °F 39.2 °F 40% 30.14 in 10.0 mi Calm Calm - N/A   Clear